| time (UTC) | temp F | wind direction | speed knots | gust knots | rain 1hr in | rain 24hr in | rain mn in | humidity % | barometer mb |
| 20260902194223 | 83 | 359 | 1.7 | 7.8 | 0.00 | 0.00 | 0.00 | 81 | 1012.9 |
| 20260902193223 | 83 | 359 | 0.9 | 7.0 | 0.00 | 0.00 | 0.00 | 80 | 1012.8 |
| 20260902192202 | 83 | 359 | 2.6 | 9.6 | 0.00 | 0.00 | 0.00 | 81 | 1012.9 |
| 20260902191224 | 83 | 359 | 4.3 | 12.2 | 0.00 | 0.00 | 0.00 | 81 | 1012.7 |
| 20260902190204 | 82 | 358 | 2.6 | 9.6 | 0.00 | 0.00 | 0.00 | 82 | 1012.9 |
| 20260902185203 | 82 | 357 | 1.7 | 10.4 | 0.00 | 0.00 | 0.00 | 80 | 1013.0 |
| 20260902184203 | 83 | 355 | 2.6 | 10.4 | 0.00 | 0.00 | 0.00 | 79 | 1012.8 |
| 20260902183203 | 82 | 359 | 6.1 | 11.3 | 0.00 | 0.00 | 0.00 | 80 | 1013.0 |
| 20260902182203 | 82 | 349 | 2.6 | 7.8 | 0.00 | 0.00 | 0.00 | 82 | 1013.0 |
| 20260902181202 | 81 | 359 | 1.7 | 5.2 | 0.00 | 0.00 | 0.00 | 85 | 1012.9 |
| 20260902180203 | 80 | 359 | 0.9 | 7.8 | 0.00 | 0.00 | 0.00 | 86 | 1012.8 |
| 20260902175203 | 79 | 359 | 0.9 | 7.8 | 0.00 | 0.00 | 0.00 | 89 | 1012.9 |
| 20260902174202 | 78 | 359 | 0.0 | 2.6 | 0.00 | 0.00 | 0.00 | 89 | 1013.1 |
| 20260902173204 | 77 | 359 | 0.9 | 4.3 | 0.00 | 0.00 | 0.00 | 89 | 1013.4 |
| 20260902172203 | 76 | 359 | 0.0 | 7.0 | 0.00 | 0.00 | 0.00 | 89 | 1013.5 |
| 20260902171202 | 76 | 359 | 0.9 | 2.6 | 0.00 | 0.00 | 0.00 | 87 | 1013.6 |
| 20260902170208 | 77 | 360 | 0.0 | 4.3 | 0.00 | 0.00 | 0.00 | 86 | 1014.0 |
| 20260902165202 | 78 | 359 | 0.0 | 9.6 | 0.00 | 0.00 | 0.00 | 85 | 1014.7 |
| 20260902164224 | 79 | 359 | 5.2 | 12.2 | 0.00 | 0.00 | 0.00 | 85 | 1015.0 |
| 20260902163204 | 79 | 359 | 1.7 | 5.2 | 0.00 | 0.00 | 0.00 | 85 | 1014.0 |
| 20260902162202 | 79 | 359 | 0.9 | 7.0 | 0.00 | 0.00 | 0.00 | 85 | 1013.5 |
| 20260902161203 | 79 | 359 | 2.6 | 7.0 | 0.00 | 0.00 | 0.00 | 85 | 1013.5 |
| 20260902160223 | 79 | 359 | 2.6 | 8.7 | 0.00 | 0.00 | 0.00 | 86 | 1013.6 |
| 20260902155206 | 79 | 359 | 1.7 | 7.0 | 0.00 | 0.00 | 0.00 | 86 | 1013.8 |
| 20260902154223 | 78 | 359 | 0.9 | 4.3 | 0.00 | 0.00 | 0.00 | 88 | 1013.9 |
| 20260902153202 | 78 | 359 | 0.0 | 7.8 | 0.00 | 0.00 | 0.00 | 90 | 1013.9 |
| 20260902152224 | 77 | 359 | 1.7 | 4.3 | 0.00 | 0.00 | 0.00 | 91 | 1014.1 |
| 20260902151204 | 76 | 358 | 2.6 | 7.8 | 0.00 | 0.00 | 0.00 | 93 | 1014.2 |
| 20260902150202 | 75 | 359 | 1.7 | 11.3 | 0.00 | 0.00 | 0.00 | 94 | 1014.3 |
| 20260902145206 | 74 | 359 | 2.6 | 5.2 | 0.00 | 0.00 | 0.00 | 95 | 1014.5 |
| 20260902144204 | 73 | 359 | 0.9 | 3.5 | 0.00 | 0.00 | 0.00 | 95 | 1014.6 |
| 20260902143203 | 72 | 360 | 0.0 | 0.0 | 0.00 | 0.00 | 0.00 | 95 | 1014.8 |
| 20260902142225 | 71 | 360 | 0.0 | 0.0 | 0.00 | 0.00 | 0.00 | 95 | 1014.9 |
| 20260902141223 | 71 | 360 | 0.0 | 0.0 | 0.00 | 0.00 | 0.00 | 95 | 1015.0 |
| 20260902140203 | 70 | 360 | 0.0 | 0.0 | 0.00 | 0.00 | 0.00 | 95 | 1015.0 |
| 20260902135202 | 71 | 360 | 0.0 | 0.0 | 0.00 | 0.00 | 0.00 | 95 | 1014.9 |
| 20260902134203 | 71 | 360 | 0.0 | 0.0 | 0.00 | 0.00 | 0.00 | 95 | 1014.9 |
| 20260902133202 | 70 | 360 | 0.0 | 0.0 | 0.00 | 0.00 | 0.00 | 95 | 1014.8 |
| 20260902132203 | 70 | 360 | 0.0 | 2.6 | 0.00 | 0.00 | 0.00 | 95 | 1014.6 |
| 20260902131202 | 70 | 359 | 1.7 | 3.5 | 0.00 | 0.00 | 0.00 | 95 | 1014.7 |
| 20260902130203 | 70 | 359 | 0.9 | 1.7 | 0.00 | 0.00 | 0.00 | 95 | 1015.0 |
| 20260902125202 | 69 | 359 | 0.9 | 3.5 | 0.00 | 0.00 | 0.00 | 95 | 1015.2 |
| 20260902124203 | 69 | 359 | 1.7 | 3.5 | 0.00 | 0.00 | 0.00 | 95 | 1015.3 |
| 20260902123202 | 70 | 359 | 0.9 | 5.2 | 0.00 | 0.00 | 0.00 | 95 | 1015.4 |
| 20260902122203 | 70 | 359 | 0.9 | 7.0 | 0.00 | 0.00 | 0.00 | 95 | 1015.7 |
| 20260902121223 | 71 | 359 | 1.7 | 11.3 | 0.00 | 0.00 | 0.00 | 95 | 1014.7 |
| 20260902120202 | 72 | 359 | 0.0 | 2.6 | 0.00 | 0.00 | 0.00 | 95 | 1014.6 |
| 20260902115204 | 72 | 360 | 0.0 | 0.9 | 0.00 | 0.00 | 0.00 | 96 | 1013.5 |
| 20260902114202 | 72 | 360 | 0.0 | 0.9 | 0.00 | 0.00 | 0.00 | 96 | 1012.9 |
| 20260902113204 | 72 | 360 | 0.0 | 0.9 | 0.00 | 0.00 | 0.00 | 95 | 1013.1 |
| 20260902112202 | 72 | 345 | 0.0 | 0.9 | 0.00 | 0.00 | 0.00 | 95 | 1012.9 |
| 20260902111203 | 71 | 359 | 0.0 | 0.9 | 0.00 | 0.00 | 0.00 | 95 | 1012.8 |
| 20260902110202 | 71 | 215 | 0.0 | 0.0 | 0.00 | 0.00 | 0.00 | 95 | 1012.8 |
| 20260902105203 | 71 | 359 | 0.0 | 0.9 | 0.00 | 0.00 | 0.00 | 95 | 1012.3 |
| 20260902104202 | 71 | 349 | 0.0 | 0.9 | 0.00 | 0.00 | 0.00 | 95 | 1012.1 |
| 20260902103202 | 71 | 241 | 0.0 | 0.0 | 0.00 | 0.00 | 0.00 | 95 | 1012.2 |
| 20260902102203 | 71 | 241 | 0.0 | 0.9 | 0.00 | 0.00 | 0.00 | 95 | 1012.6 |
| 20260902101203 | 71 | 360 | 0.0 | 0.0 | 0.00 | 0.00 | 0.00 | 95 | 1012.3 |
| 20260902100228 | 71 | 360 | 0.0 | 0.0 | 0.00 | 0.00 | 0.00 | 95 | 1012.4 |
| 20260902095202 | 71 | 360 | 0.0 | 0.0 | 0.00 | 0.00 | 0.00 | 95 | 1012.1 |
| 20260902094203 | 71 | 360 | 0.0 | 0.0 | 0.00 | 0.00 | 0.00 | 95 | 1012.7 |
| 20260902093202 | 71 | 360 | 0.0 | 0.0 | 0.00 | 0.00 | 0.00 | 95 | 1012.9 |
| 20260902092203 | 71 | 360 | 0.0 | 0.0 | 0.00 | 0.00 | 0.00 | 95 | 1012.9 |
| 20260902091202 | 71 | 360 | 0.0 | 0.0 | 0.00 | 0.00 | 0.00 | 95 | 1013.0 |
| 20260902090202 | 71 | 360 | 0.0 | 0.0 | 0.00 | 0.00 | 0.00 | 95 | 1012.9 |
| 20260902085205 | 70 | 360 | 0.0 | 0.0 | 0.00 | 0.00 | 0.00 | 95 | 1013.3 |
| 20260902084224 | 70 | 360 | 0.0 | 0.0 | 0.00 | 0.00 | 0.00 | 95 | 1013.4 |
| 20260902083203 | 70 | 360 | 0.0 | 0.0 | 0.00 | 0.00 | 0.00 | 95 | 1013.3 |
| 20260902082202 | 70 | 360 | 0.0 | 0.0 | 0.00 | 0.01 | 0.00 | 95 | 1013.3 |
| 20260902081203 | 70 | 360 | 0.0 | 0.0 | 0.00 | 0.01 | 0.00 | 95 | 1013.8 |
| 20260902080202 | 70 | 360 | 0.0 | 0.0 | 0.00 | 0.02 | 0.00 | 95 | 1013.9 |
| 20260902075202 | 70 | 360 | 0.0 | 0.0 | 0.00 | 0.02 | 0.00 | 95 | 1013.8 |
| 20260902074202 | 70 | 360 | 0.0 | 0.0 | 0.00 | 0.02 | 0.00 | 95 | 1013.7 |
| 20260902073202 | 70 | 360 | 0.0 | 0.0 | 0.00 | 0.04 | 0.00 | 95 | 1013.7 |
| 20260902072202 | 70 | 360 | 0.0 | 0.0 | 0.00 | 0.04 | 0.00 | 95 | 1013.9 |
| 20260902071202 | 70 | 360 | 0.0 | 0.0 | 0.00 | 0.04 | 0.00 | 95 | 1014.0 |
| 20260902070204 | 70 | 360 | 0.0 | 0.0 | 0.00 | 0.04 | 0.00 | 94 | 1014.1 |
| 20260902065226 | 70 | 360 | 0.0 | 0.0 | 0.00 | 0.04 | 0.00 | 95 | 1014.1 |
| 20260902064202 | 70 | 360 | 0.0 | 0.0 | 0.00 | 0.04 | 0.00 | 95 | 1014.0 |
| 20260902063203 | 70 | 360 | 0.0 | 0.0 | 0.00 | 0.04 | 0.00 | 95 | 1014.1 |
| 20260902062202 | 70 | 360 | 0.0 | 0.0 | 0.00 | 0.04 | 0.00 | 94 | 1014.1 |
| 20260902061246 | 70 | 360 | 0.0 | 0.0 | 0.00 | 0.04 | 0.00 | 94 | 1014.1 |
| 20260902060202 | 70 | 360 | 0.0 | 0.0 | 0.00 | 0.04 | 0.00 | 94 | 1014.1 |
| 20260902055202 | 70 | 360 | 0.0 | 0.0 | 0.00 | 0.04 | 0.00 | 94 | 1014.2 |
| 20260902054202 | 70 | 360 | 0.0 | 0.0 | 0.00 | 0.04 | 0.00 | 94 | 1014.2 |
| 20260902053225 | 71 | 360 | 0.0 | 0.0 | 0.00 | 0.04 | 0.00 | 94 | 1014.1 |
| 20260902052203 | 71 | 360 | 0.0 | 0.0 | 0.00 | 0.04 | 0.00 | 94 | 1014.0 |
| 20260902051204 | 71 | 360 | 0.0 | 0.0 | 0.00 | 0.04 | 0.00 | 94 | 1014.1 |
| 20260902050202 | 71 | 360 | 0.0 | 0.0 | 0.00 | 0.04 | 0.00 | 94 | 1014.2 |
| 20260902045202 | 71 | 360 | 0.0 | 0.0 | 0.00 | 0.04 | 0.00 | 94 | 1014.1 |
| 20260902044203 | 71 | 360 | 0.0 | 0.0 | 0.00 | 0.04 | 0.00 | 94 | 1014.0 |
| 20260902043204 | 71 | 360 | 0.0 | 0.0 | 0.00 | 0.04 | 0.00 | 93 | 1014.0 |
| 20260902042204 | 71 | 360 | 0.0 | 0.0 | 0.00 | 0.04 | 0.00 | 93 | 1014.1 |
| 20260902041203 | 72 | 360 | 0.0 | 0.0 | 0.00 | 0.04 | 0.00 | 93 | 1014.0 |
| 20260902040204 | 72 | 360 | 0.0 | 0.0 | 0.00 | 0.04 | 0.00 | 93 | 1013.9 |
| 20260902035202 | 72 | 360 | 0.0 | 0.0 | 0.00 | 0.04 | 0.04 | 93 | 1013.9 |
| 20260902034203 | 72 | 360 | 0.0 | 0.0 | 0.00 | 0.04 | 0.04 | 93 | 1013.8 |
| 20260902033202 | 73 | 360 | 0.0 | 0.0 | 0.00 | 0.04 | 0.04 | 93 | 1013.8 |
| 20260902032203 | 73 | 360 | 0.0 | 0.0 | 0.00 | 0.04 | 0.04 | 93 | 1013.7 |
| 20260902031203 | 73 | 360 | 0.0 | 0.0 | 0.00 | 0.04 | 0.04 | 93 | 1013.7 |
| 20260902030203 | 73 | 360 | 0.0 | 0.0 | 0.00 | 0.04 | 0.04 | 93 | 1013.7 |
| 20260902025225 | 73 | 360 | 0.0 | 0.0 | 0.00 | 0.04 | 0.04 | 93 | 1013.7 |
| 20260902024225 | 73 | 360 | 0.0 | 0.0 | 0.00 | 0.04 | 0.04 | 92 | 1013.8 |
| 20260902023245 | 74 | 360 | 0.0 | 0.0 | 0.00 | 0.04 | 0.04 | 92 | 1013.9 |
| 20260902022202 | 74 | 360 | 0.0 | 0.0 | 0.00 | 0.04 | 0.04 | 92 | 1013.9 |
| 20260902021202 | 74 | 360 | 0.0 | 0.0 | 0.00 | 0.04 | 0.04 | 92 | 1013.9 |
| 20260902020203 | 74 | 360 | 0.0 | 0.0 | 0.00 | 0.04 | 0.04 | 92 | 1013.9 |
| 20260902015202 | 74 | 360 | 0.0 | 0.0 | 0.00 | 0.04 | 0.04 | 92 | 1013.9 |
| 20260902014204 | 74 | 360 | 0.0 | 0.0 | 0.00 | 0.04 | 0.04 | 92 | 1013.9 |
| 20260902013223 | 75 | 360 | 0.0 | 0.0 | 0.00 | 0.04 | 0.04 | 91 | 1013.8 |
| 20260902012202 | 75 | 360 | 0.0 | 0.0 | 0.00 | 0.04 | 0.04 | 91 | 1013.9 |
| 20260902011202 | 75 | 360 | 0.0 | 0.0 | 0.00 | 0.04 | 0.04 | 90 | 1013.8 |
| 20260902010225 | 75 | 360 | 0.0 | 0.0 | 0.00 | 0.04 | 0.04 | 90 | 1013.7 |
| 20260902005202 | 76 | 360 | 0.0 | 0.0 | 0.00 | 0.04 | 0.04 | 89 | 1013.4 |
| 20260902004203 | 76 | 360 | 0.0 | 0.0 | 0.00 | 0.04 | 0.04 | 89 | 1013.4 |
| 20260902003203 | 76 | 360 | 0.0 | 0.0 | 0.00 | 0.06 | 0.04 | 89 | 1013.2 |
| 20260902002202 | 77 | 360 | 0.0 | 0.0 | 0.00 | 0.06 | 0.04 | 88 | 1013.1 |
| 20260902001203 | 77 | 360 | 0.0 | 0.0 | 0.00 | 0.06 | 0.04 | 87 | 1012.9 |
| 20260902000204 | 78 | 360 | 0.0 | 0.0 | 0.00 | 0.06 | 0.04 | 87 | 1012.9 |
| 20260901235226 | 78 | 360 | 0.0 | 0.0 | 0.00 | 0.06 | 0.04 | 86 | 1012.8 |
| 20260901234203 | 79 | 360 | 0.0 | 0.0 | 0.00 | 0.06 | 0.04 | 86 | 1012.9 |
| 20260901233224 | 79 | 360 | 0.0 | 0.0 | 0.00 | 0.06 | 0.04 | 86 | 1012.8 |
| 20260901232203 | 79 | 360 | 0.0 | 0.0 | 0.00 | 0.06 | 0.04 | 86 | 1012.9 |
| 20260901231202 | 80 | 360 | 0.0 | 0.9 | 0.00 | 0.06 | 0.04 | 85 | 1013.0 |
| 20260901230203 | 80 | 360 | 0.0 | 0.9 | 0.00 | 0.06 | 0.04 | 86 | 1013.1 |
| 20260901225202 | 80 | 360 | 0.0 | 0.0 | 0.00 | 0.06 | 0.04 | 85 | 1013.2 |
| 20260901224203 | 80 | 360 | 0.0 | 0.9 | 0.00 | 0.06 | 0.04 | 85 | 1013.3 |
| 20260901223202 | 81 | 360 | 0.0 | 0.9 | 0.00 | 0.06 | 0.04 | 84 | 1013.4 |
| 20260901222224 | 81 | 359 | 0.0 | 1.7 | 0.00 | 0.06 | 0.04 | 84 | 1013.2 |
| 20260901221202 | 81 | 359 | 0.9 | 3.5 | 0.00 | 0.06 | 0.04 | 84 | 1013.1 |
| 20260901220202 | 81 | 359 | 0.0 | 2.6 | 0.00 | 0.06 | 0.04 | 84 | 1013.2 |
| 20260901215203 | 81 | 360 | 0.0 | 0.9 | 0.00 | 0.06 | 0.04 | 83 | 1013.2 |
| 20260901214225 | 81 | 253 | 0.0 | 1.7 | 0.00 | 0.06 | 0.04 | 83 | 1013.3 |
| 20260901212224 | 82 | 360 | 0.0 | 0.9 | 0.00 | 0.06 | 0.04 | 82 | 1013.1 |
| 20260901211224 | 82 | 359 | 0.0 | 0.9 | 0.00 | 0.06 | 0.04 | 82 | 1013.1 |
| 20260901210203 | 82 | 360 | 0.0 | 0.9 | 0.00 | 0.06 | 0.04 | 83 | 1013.1 |
| 20260901205225 | 82 | 360 | 0.0 | 1.7 | 0.00 | 0.06 | 0.04 | 83 | 1013.0 |
| 20260901204202 | 81 | 360 | 0.0 | 2.6 | 0.00 | 0.06 | 0.04 | 82 | 1013.2 |
| 20260901203202 | 81 | 360 | 0.0 | 2.6 | 0.00 | 0.06 | 0.04 | 82 | 1013.2 |
| 20260901202202 | 81 | 359 | 0.0 | 1.7 | 0.00 | 0.06 | 0.04 | 83 | 1013.2 |
| 20260901201202 | 81 | 360 | 0.0 | 1.7 | 0.00 | 0.06 | 0.04 | 83 | 1013.3 |
| 20260901200224 | 81 | 359 | 0.0 | 1.7 | 0.00 | 0.06 | 0.04 | 83 | 1013.4 |
| 20260901195202 | 82 | 359 | 0.0 | 1.7 | 0.00 | 0.06 | 0.04 | 83 | 1013.3 |